Wetterdaten: Samstag, 01.03.2014
Datum Zeit Temperatur Luftfeuchte Luftdruck Regen Wind Richtung Richtung Taupunkt Windchill Windben
01.03.2014 00:00 -2,0 C 66 % 1001,9 hPa 0,0 l/m 0,2 km/h (0 Bft) O-SO 112 -7,5 C -2,0 C 0,0 km/h (0 Bft)
01.03.2014 00:05 -2,2 C 67 % 1001,9 hPa 0,0 l/m 0,2 km/h (0 Bft) O-SO 112 -7,5 C -2,1 C 0,0 km/h (0 Bft)
01.03.2014 00:10 -1,9 C 68 % 1002,2 hPa 0,0 l/m 0,5 km/h (0 Bft) O-SO 112 -7,0 C -2,4 C 0,0 km/h (0 Bft)
01.03.2014 00:15 -1,7 C 68 % 1002,2 hPa 0,0 l/m 0,5 km/h (0 Bft) O-SO 112 -6,8 C -2,4 C 0,0 km/h (0 Bft)
01.03.2014 00:20 -1,8 C 67 % 1002,2 hPa 0,0 l/m 0,2 km/h (0 Bft) SO 135 -7,1 C -2,3 C 0,0 km/h (0 Bft)
01.03.2014 00:25 -1,8 C 67 % 1002,2 hPa 0,0 l/m 0,0 km/h (0 Bft) SO 135 -7,1 C -2,4 C 0,0 km/h (0 Bft)
01.03.2014 00:30 -2,0 C 67 % 1002,1 hPa 0,0 l/m 0,0 km/h (0 Bft) O 90 -7,3 C -2,5 C 0,0 km/h (0 Bft)
01.03.2014 00:35 -2,1 C 67 % 1002,1 hPa 0,0 l/m 0,0 km/h (0 Bft) O 90 -7,4 C -2,6 C 0,0 km/h (0 Bft)
01.03.2014 00:40 -2,0 C 68 % 1002,1 hPa 0,0 l/m 0,0 km/h (0 Bft) S 180 -7,1 C -2,3 C 0,0 km/h (0 Bft)
01.03.2014 00:45 -2,1 C 70 % 1002,1 hPa 0,0 l/m 0,2 km/h (0 Bft) S-SW 202 -6,8 C -2,4 C 1,8 km/h (1 Bft)
01.03.2014 00:50 -2,1 C 70 % 1002,2 hPa 0,0 l/m 1,9 km/h (1 Bft) O 90 -6,8 C -2,6 C 7,2 km/h (2 Bft)
01.03.2014 00:55 -0,5 C 69 % 1002,2 hPa 0,0 l/m 4,3 km/h (1 Bft) O-SO 112 -5,5 C -3,5 C 7,7 km/h (2 Bft)
01.03.2014 01:00 1,0 C 61 % 1002,2 hPa 0,0 l/m 6,9 km/h (2 Bft) O 90 -5,7 C -3,3 C 12,1 km/h (2 Bft)
01.03.2014 01:03 1,2 C 59 % 1002,2 hPa 0,0 l/m 5,6 km/h (1 Bft) S-SO 157 -5,9 C -1,4 C 1,6 km/h (1 Bft)
01.03.2014 01:05 1,2 C 59 % 1002,2 hPa 0,0 l/m 5,6 km/h (1 Bft) S-SO 157 -5,9 C -1,4 C 1,6 km/h (1 Bft)
01.03.2014 01:10 -0,5 C 61 % 1002,4 hPa 0,0 l/m 2,3 km/h (1 Bft) N-NO 22 -7,1 C -0,1 C 1,8 km/h (1 Bft)
01.03.2014 01:15 0,4 C 62 % 1002,4 hPa 0,0 l/m 1,4 km/h (1 Bft) O 90 -6,0 C -0,5 C 4,3 km/h (1 Bft)
01.03.2014 01:20 1,0 C 59 % 1002,4 hPa 0,0 l/m 3,7 km/h (1 Bft) O 90 -6,1 C -0,8 C 5,0 km/h (1 Bft)
01.03.2014 01:25 0,6 C 59 % 1002,4 hPa 0,0 l/m 4,8 km/h (1 Bft) S-SW 202 -6,5 C -1,2 C 2,9 km/h (1 Bft)
01.03.2014 01:30 0,2 C 64 % 1002,6 hPa 0,0 l/m 3,9 km/h (1 Bft) S-SO 157 -5,8 C -0,9 C 4,7 km/h (1 Bft)
01.03.2014 01:35 0,8 C 66 % 1002,6 hPa 0,0 l/m 4,0 km/h (1 Bft) O-SO 112 -4,8 C -0,8 C 6,0 km/h (2 Bft)
01.03.2014 01:40 1,1 C 66 % 1002,6 hPa 0,0 l/m 5,5 km/h (1 Bft) S 180 -4,5 C -1,2 C 6,1 km/h (2 Bft)
01.03.2014 01:45 1,0 C 67 % 1002,6 hPa 0,0 l/m 5,6 km/h (1 Bft) S-SO 157 -4,4 C -1,1 C 8,9 km/h (2 Bft)
01.03.2014 01:50 1,1 C 71 % 1002,4 hPa 0,0 l/m 5,1 km/h (1 Bft) S-SO 157 -3,6 C -0,8 C 5,3 km/h (1 Bft)
01.03.2014 01:55 1,2 C 73 % 1002,4 hPa 0,0 l/m 5,3 km/h (1 Bft) O 90 -3,1 C -0,9 C 6,6 km/h (2 Bft)
01.03.2014 02:00 1,2 C 75 % 1002,4 hPa 0,0 l/m 5,1 km/h (1 Bft) O 90 -2,7 C -0,8 C 7,1 km/h (2 Bft)
01.03.2014 02:05 1,1 C 75 % 1002,4 hPa 0,0 l/m 5,5 km/h (1 Bft) SO 135 -2,8 C -1,0 C 6,4 km/h (2 Bft)
01.03.2014 02:10 1,1 C 76 % 1002,1 hPa 0,0 l/m 5,8 km/h (2 Bft) O-SO 112 -2,6 C -1,1 C 6,4 km/h (2 Bft)
01.03.2014 02:15 1,1 C 77 % 1002,1 hPa 0,0 l/m 5,8 km/h (2 Bft) O 90 -2,5 C -1,1 C 3,9 km/h (1 Bft)
01.03.2014 02:20 1,0 C 78 % 1002,1 hPa 0,0 l/m 6,0 km/h (2 Bft) SO 135 -2,4 C -1,2 C 6,8 km/h (2 Bft)
01.03.2014 02:25 1,1 C 78 % 1002,1 hPa 0,0 l/m 6,1 km/h (2 Bft) O 90 -2,3 C -1,2 C 7,2 km/h (2 Bft)
01.03.2014 02:30 1,3 C 79 % 1002,1 hPa 0,0 l/m 6,3 km/h (2 Bft) SO 135 -1,9 C -1,1 C 8,0 km/h (2 Bft)
01.03.2014 02:35 1,1 C 78 % 1002,1 hPa 0,0 l/m 6,1 km/h (2 Bft) O-NO 67 -2,3 C -1,2 C 6,3 km/h (2 Bft)
01.03.2014 02:40 1,0 C 79 % 1002,1 hPa 0,0 l/m 5,3 km/h (1 Bft) SO 135 -2,2 C -0,9 C 4,5 km/h (1 Bft)
01.03.2014 02:45 1,2 C 79 % 1002,1 hPa 0,0 l/m 5,3 km/h (1 Bft) S 180 -2,0 C -0,9 C 4,8 km/h (1 Bft)
01.03.2014 02:50 1,2 C 79 % 1002,1 hPa 0,0 l/m 5,3 km/h (1 Bft) O-SO 112 -2,0 C -0,9 C 6,0 km/h (2 Bft)
01.03.2014 02:55 1,0 C 79 % 1002,1 hPa 0,0 l/m 5,3 km/h (1 Bft) O-SO 112 -2,2 C -0,9 C 6,0 km/h (2 Bft)
01.03.2014 03:00 1,0 C 80 % 1002,1 hPa 0,0 l/m 5,0 km/h (1 Bft) S 180 -2,1 C -0,9 C 6,6 km/h (2 Bft)
01.03.2014 03:05 0,9 C 81 % 1002,1 hPa 0,0 l/m 5,1 km/h (1 Bft) O 90 -2,0 C -1,1 C 7,9 km/h (2 Bft)
01.03.2014 03:10 0,9 C 82 % 1002,2 hPa 0,0 l/m 5,1 km/h (1 Bft) O-NO 67 -1,8 C -1,2 C 13,2 km/h (3 Bft)
01.03.2014 03:15 0,9 C 82 % 1002,2 hPa 0,0 l/m 6,0 km/h (2 Bft) S-SO 157 -1,8 C -1,4 C 6,8 km/h (2 Bft)
01.03.2014 03:20 0,9 C 83 % 1002,2 hPa 0,0 l/m 5,8 km/h (2 Bft) O 90 -1,7 C -1,4 C 7,2 km/h (2 Bft)
01.03.2014 03:25 0,6 C 83 % 1002,2 hPa 0,0 l/m 4,2 km/h (1 Bft) S-SO 157 -1,9 C -0,9 C 6,9 km/h (2 Bft)
01.03.2014 03:30 0,8 C 83 % 1002,2 hPa 0,0 l/m 4,3 km/h (1 Bft) S-SO 157 -1,8 C -0,8 C 4,0 km/h (1 Bft)
01.03.2014 03:35 0,7 C 83 % 1002,2 hPa 0,0 l/m 5,3 km/h (1 Bft) O 90 -1,8 C -1,3 C 4,5 km/h (1 Bft)
01.03.2014 03:40 0,7 C 83 % 1002,2 hPa 0,0 l/m 4,3 km/h (1 Bft) O-SO 112 -1,8 C -0,9 C 3,9 km/h (1 Bft)
01.03.2014 03:45 0,6 C 83 % 1002,2 hPa 0,0 l/m 4,2 km/h (1 Bft) O 90 -1,9 C -0,9 C 3,9 km/h (1 Bft)
01.03.2014 03:50 0,5 C 83 % 1002,2 hPa 0,0 l/m 3,9 km/h (1 Bft) O 90 -2,0 C -0,7 C 6,8 km/h (2 Bft)
01.03.2014 03:55 0,3 C 83 % 1002,2 hPa 0,0 l/m 3,9 km/h (1 Bft) S-SO 157 -2,2 C -0,9 C 5,0 km/h (1 Bft)
01.03.2014 04:00 0,4 C 83 % 1002,2 hPa 0,0 l/m 4,0 km/h (1 Bft) O-SO 112 -2,1 C -1,0 C 4,3 km/h (1 Bft)
01.03.2014 04:05 0,6 C 83 % 1002,2 hPa 0,0 l/m 4,0 km/h (1 Bft) O 90 -1,9 C -1,0 C 5,1 km/h (1 Bft)
01.03.2014 04:10 0,1 C 82 % 1002,2 hPa 0,0 l/m 3,4 km/h (1 Bft) O 90 -2,6 C -0,7 C 3,7 km/h (1 Bft)
01.03.2014 04:15 0,1 C 82 % 1002,2 hPa 0,0 l/m 2,4 km/h (1 Bft) SO 135 -2,6 C -0,3 C 0,0 km/h (0 Bft)
01.03.2014 04:20 -0,9 C 81 % 1002,2 hPa 0,0 l/m 0,6 km/h (0 Bft) NO 45 -3,7 C -0,9 C 0,0 km/h (0 Bft)
01.03.2014 04:25 -1,0 C 81 % 1002,2 hPa 0,0 l/m 0,2 km/h (0 Bft) NO 45 -3,8 C -1,3 C 2,1 km/h (1 Bft)
01.03.2014 04:30 -0,9 C 80 % 1002,2 hPa 0,0 l/m 0,8 km/h (0 Bft) O-NO 67 -3,9 C -1,6 C 2,7 km/h (1 Bft)
01.03.2014 04:35 -0,9 C 80 % 1002,2 hPa 0,0 l/m 1,9 km/h (1 Bft) O 90 -3,9 C -1,8 C 4,2 km/h (1 Bft)
01.03.2014 04:40 -0,9 C 79 % 1002,2 hPa 0,0 l/m 4,3 km/h (1 Bft) O-SO 112 -4,1 C -2,9 C 7,4 km/h (2 Bft)
01.03.2014 04:45 -0,9 C 78 % 1002,2 hPa 0,0 l/m 5,5 km/h (1 Bft) O-SO 112 -4,2 C -3,1 C 4,5 km/h (1 Bft)
01.03.2014 04:50 -1,2 C 77 % 1002,1 hPa 0,0 l/m 4,2 km/h (1 Bft) W 270 -4,7 C -2,4 C 0,0 km/h (0 Bft)
01.03.2014 04:55 -1,0 C 77 % 1002,1 hPa 0,0 l/m 2,7 km/h (1 Bft) O-SO 112 -4,5 C -2,0 C 6,0 km/h (2 Bft)
01.03.2014 05:00 -1,9 C 77 % 1002,1 hPa 0,0 l/m 1,8 km/h (1 Bft) NO 45 -5,4 C -1,8 C 3,2 km/h (1 Bft)
01.03.2014 05:05 -1,8 C 77 % 1002,1 hPa 0,0 l/m 3,1 km/h (1 Bft) W-SW 247 -5,3 C -2,7 C 4,8 km/h (1 Bft)
01.03.2014 05:10 -1,6 C 79 % 1002,3 hPa 0,0 l/m 3,9 km/h (1 Bft) NO 45 -4,8 C -3,1 C 3,2 km/h (1 Bft)
01.03.2014 05:15 -1,3 C 79 % 1002,3 hPa 0,0 l/m 2,9 km/h (1 Bft) NO 45 -4,5 C -2,3 C 5,0 km/h (1 Bft)
01.03.2014 05:20 -0,8 C 79 % 1002,3 hPa 0,0 l/m 3,1 km/h (1 Bft) SO 135 -4,0 C -1,7 C 0,0 km/h (0 Bft)
01.03.2014 05:25 -1,1 C 78 % 1002,3 hPa 0,0 l/m 3,2 km/h (1 Bft) W 270 -4,4 C -1,8 C 0,0 km/h (0 Bft)
01.03.2014 05:30 -1,3 C 78 % 1002,2 hPa 0,0 l/m 0,8 km/h (0 Bft) O-SO 112 -4,6 C -1,1 C 4,2 km/h (1 Bft)
01.03.2014 05:35 -1,3 C 78 % 1002,2 hPa 0,0 l/m 0,8 km/h (0 Bft) W 270 -4,6 C -1,1 C 3,2 km/h (1 Bft)
01.03.2014 05:40 -1,3 C 78 % 1002,2 hPa 0,0 l/m 0,6 km/h (0 Bft) W 270 -4,6 C -1,2 C 0,0 km/h (0 Bft)
01.03.2014 05:45 -1,3 C 78 % 1002,2 hPa 0,0 l/m 0,6 km/h (0 Bft) O 90 -4,6 C -1,4 C 3,9 km/h (1 Bft)
01.03.2014 05:50 -1,1 C 78 % 1002,0 hPa 0,0 l/m 1,1 km/h (1 Bft) O 90 -4,4 C -1,3 C 2,7 km/h (1 Bft)
01.03.2014 05:55 -0,6 C 79 % 1002,0 hPa 0,0 l/m 1,4 km/h (1 Bft) O 90 -3,8 C -1,1 C 3,9 km/h (1 Bft)
01.03.2014 06:00 -0,6 C 78 % 1002,0 hPa 0,0 l/m 1,1 km/h (1 Bft) O-NO 67 -3,9 C -0,8 C 0,0 km/h (0 Bft)
01.03.2014 06:03 -0,8 C 78 % 1002,0 hPa 0,0 l/m 0,8 km/h (0 Bft) NO 45 -4,1 C -0,8 C 0,0 km/h (0 Bft)
01.03.2014 06:05 -0,8 C 78 % 1002,0 hPa 0,0 l/m 0,8 km/h (0 Bft) NO 45 -4,1 C -0,8 C 0,0 km/h (0 Bft)
01.03.2014 06:10 -0,9 C 78 % 1002,1 hPa 0,0 l/m 0,0 km/h (0 Bft) O 90 -4,2 C -0,9 C 0,0 km/h (0 Bft)
01.03.2014 06:15 -0,5 C 79 % 1002,1 hPa 0,0 l/m 0,2 km/h (0 Bft) O 90 -3,7 C -0,7 C 0,0 km/h (0 Bft)
01.03.2014 06:20 -0,5 C 79 % 1002,1 hPa 0,0 l/m 0,2 km/h (0 Bft) NO 45 -3,7 C -0,5 C 0,0 km/h (0 Bft)
01.03.2014 06:25 -0,6 C 79 % 1002,1 hPa 0,0 l/m 0,0 km/h (0 Bft) NO 45 -3,8 C -0,4 C 0,0 km/h (0 Bft)
01.03.2014 06:30 -0,8 C 79 % 1002,2 hPa 0,0 l/m 0,0 km/h (0 Bft) NO 45 -4,0 C -0,5 C 0,0 km/h (0 Bft)
01.03.2014 06:35 -0,7 C 79 % 1002,2 hPa 0,0 l/m 1,0 km/h (0 Bft) S 180 -3,9 C -0,6 C 7,4 km/h (2 Bft)
01.03.2014 06:40 0,3 C 81 % 1002,2 hPa 0,0 l/m 4,2 km/h (1 Bft) O-SO 112 -2,6 C -0,9 C 5,0 km/h (1 Bft)
01.03.2014 06:45 0,7 C 82 % 1002,2 hPa 0,0 l/m 5,5 km/h (1 Bft) S 180 -2,0 C -1,1 C 8,5 km/h (2 Bft)
01.03.2014 06:50 0,7 C 82 % 1002,2 hPa 0,0 l/m 5,8 km/h (2 Bft) O-SO 112 -2,0 C -0,7 C 6,4 km/h (2 Bft)
01.03.2014 06:55 0,9 C 83 % 1002,2 hPa 0,0 l/m 5,5 km/h (1 Bft) S-SW 202 -1,7 C -0,4 C 4,5 km/h (1 Bft)
01.03.2014 07:00 0,9 C 83 % 1002,2 hPa 0,0 l/m 4,5 km/h (1 Bft) S-SO 157 -1,7 C 0,2 C 4,2 km/h (1 Bft)
01.03.2014 07:05 1,1 C 82 % 1002,2 hPa 0,0 l/m 4,0 km/h (1 Bft) S 180 -1,6 C 0,4 C 4,7 km/h (1 Bft)
01.03.2014 07:10 1,2 C 82 % 1002,3 hPa 0,0 l/m 4,2 km/h (1 Bft) SO 135 -1,5 C 0,6 C 7,4 km/h (2 Bft)
01.03.2014 07:15 1,2 C 82 % 1002,3 hPa 0,0 l/m 4,2 km/h (1 Bft) O-SO 112 -1,5 C 0,6 C 2,6 km/h (1 Bft)
01.03.2014 07:20 1,2 C 82 % 1002,3 hPa 0,0 l/m 4,5 km/h (1 Bft) S 180 -1,5 C 0,6 C 5,1 km/h (1 Bft)
01.03.2014 07:25 1,2 C 82 % 1002,3 hPa 0,0 l/m 4,0 km/h (1 Bft) S-SW 202 -1,5 C 0,8 C 7,4 km/h (2 Bft)
01.03.2014 07:30 1,2 C 81 % 1002,6 hPa 0,0 l/m 3,4 km/h (1 Bft) W-SW 247 -1,7 C 1,2 C 4,5 km/h (1 Bft)
01.03.2014 07:35 1,2 C 81 % 1002,6 hPa 0,0 l/m 2,6 km/h (1 Bft) SO 135 -1,7 C 1,7 C 2,6 km/h (1 Bft)
01.03.2014 07:40 1,2 C 81 % 1002,6 hPa 0,0 l/m 3,1 km/h (1 Bft) S-SO 157 -1,7 C 1,4 C 4,5 km/h (1 Bft)
01.03.2014 07:45 1,3 C 82 % 1002,6 hPa 0,0 l/m 4,0 km/h (1 Bft) W-SW 247 -1,4 C 0,9 C 3,2 km/h (1 Bft)
01.03.2014 07:50 1,3 C 81 % 1002,4 hPa 0,0 l/m 3,7 km/h (1 Bft) S-SW 202 -1,6 C 1,1 C 1,8 km/h (1 Bft)
01.03.2014 07:55 1,4 C 81 % 1002,4 hPa 0,0 l/m 2,7 km/h (1 Bft) S 180 -1,5 C 1,7 C 0,0 km/h (0 Bft)
01.03.2014 08:00 1,4 C 81 % 1002,4 hPa 0,0 l/m 2,6 km/h (1 Bft) W-SW 247 -1,5 C 1,8 C 2,7 km/h (1 Bft)
01.03.2014 08:05 1,4 C 81 % 1002,4 hPa 0,0 l/m 2,6 km/h (1 Bft) S 180 -1,5 C 1,9 C 8,9 km/h (2 Bft)
01.03.2014 08:10 1,5 C 81 % 1002,6 hPa 0,0 l/m 3,5 km/h (1 Bft) S 180 -1,4 C 1,4 C 6,3 km/h (2 Bft)
01.03.2014 08:15 1,4 C 81 % 1002,6 hPa 0,0 l/m 5,0 km/h (1 Bft) S-SW 202 -1,5 C 0,7 C 7,2 km/h (2 Bft)
01.03.2014 08:20 1,4 C 81 % 1002,6 hPa 0,0 l/m 5,5 km/h (1 Bft) S-SW 202 -1,5 C 0,4 C 2,7 km/h (1 Bft)
01.03.2014 08:25 1,5 C 81 % 1002,6 hPa 0,0 l/m 5,1 km/h (1 Bft) S-SW 202 -1,4 C 0,6 C 6,4 km/h (2 Bft)
01.03.2014 08:30 1,5 C 80 % 1002,8 hPa 0,0 l/m 4,2 km/h (1 Bft) S-SW 202 -1,6 C 1,1 C 6,3 km/h (2 Bft)
01.03.2014 08:35 1,5 C 80 % 1002,8 hPa 0,0 l/m 4,5 km/h (1 Bft) SO 135 -1,6 C 0,9 C 4,2 km/h (1 Bft)
01.03.2014 08:40 1,5 C 80 % 1002,8 hPa 0,0 l/m 3,5 km/h (1 Bft) S 180 -1,6 C 1,4 C 6,9 km/h (2 Bft)
01.03.2014 08:45 1,5 C 80 % 1002,8 hPa 0,0 l/m 2,6 km/h (1 Bft) S-SO 157 -1,6 C 2,0 C 5,8 km/h (2 Bft)
01.03.2014 08:50 1,5 C 80 % 1002,9 hPa 0,0 l/m 4,2 km/h (1 Bft) S 180 -1,6 C 1,1 C 4,2 km/h (1 Bft)
01.03.2014 08:55 1,5 C 79 % 1002,9 hPa 0,0 l/m 4,5 km/h (1 Bft) S-SW 202 -1,7 C 0,9 C 3,5 km/h (1 Bft)
01.03.2014 09:00 1,5 C 79 % 1002,9 hPa 0,0 l/m 3,5 km/h (1 Bft) S 180 -1,7 C 1,4 C 4,5 km/h (1 Bft)
01.03.2014 09:05 1,5 C 79 % 1002,9 hPa 0,0 l/m 3,7 km/h (1 Bft) S 180 -1,7 C 1,3 C 6,9 km/h (2 Bft)
01.03.2014 09:10 1,5 C 79 % 1003,2 hPa 0,0 l/m 3,5 km/h (1 Bft) S-SO 157 -1,7 C 1,4 C 4,3 km/h (1 Bft)
01.03.2014 09:15 1,5 C 79 % 1003,2 hPa 0,0 l/m 4,3 km/h (1 Bft) S-SW 202 -1,7 C 1,0 C 6,8 km/h (2 Bft)
01.03.2014 09:20 1,6 C 79 % 1003,2 hPa 0,0 l/m 5,6 km/h (1 Bft) S 180 -1,6 C 0,4 C 5,8 km/h (2 Bft)
01.03.2014 09:25 1,6 C 79 % 1003,2 hPa 0,0 l/m 5,0 km/h (1 Bft) S-SO 157 -1,6 C 0,8 C 3,7 km/h (1 Bft)
01.03.2014 09:30 1,7 C 79 % 1003,1 hPa 0,0 l/m 4,7 km/h (1 Bft) S 180 -1,5 C 1,1 C 6,8 km/h (2 Bft)
01.03.2014 09:35 1,8 C 79 % 1003,1 hPa 0,0 l/m 4,8 km/h (1 Bft) S 180 -1,4 C 1,1 C 4,5 km/h (1 Bft)
01.03.2014 09:40 1,8 C 79 % 1003,1 hPa 0,0 l/m 5,0 km/h (1 Bft) W-SW 247 -1,4 C 1,1 C 7,6 km/h (2 Bft)
01.03.2014 09:45 1,8 C 79 % 1003,1 hPa 0,0 l/m 5,8 km/h (2 Bft) W-SW 247 -1,4 C 0,8 C 6,1 km/h (2 Bft)
01.03.2014 09:50 1,8 C 79 % 1002,9 hPa 0,0 l/m 6,9 km/h (2 Bft) S-SO 157 -1,4 C -0,1 C 6,0 km/h (2 Bft)
01.03.2014 09:55 1,8 C 79 % 1002,9 hPa 0,0 l/m 6,8 km/h (2 Bft) S 180 -1,4 C 0,0 C 5,8 km/h (2 Bft)
01.03.2014 10:00 1,9 C 79 % 1002,9 hPa 0,0 l/m 4,8 km/h (1 Bft) S 180 -1,3 C 1,3 C 3,7 km/h (1 Bft)
01.03.2014 10:05 2,0 C 78 % 1002,9 hPa 0,0 l/m 4,2 km/h (1 Bft) S 180 -1,4 C 1,7 C 7,6 km/h (2 Bft)
01.03.2014 10:10 2,0 C 78 % 1002,9 hPa 0,0 l/m 4,7 km/h (1 Bft) S-SW 202 -1,4 C 1,5 C 7,1 km/h (2 Bft)
01.03.2014 10:15 2,1 C 78 % 1002,9 hPa 0,0 l/m 4,5 km/h (1 Bft) S-SW 202 -1,3 C 1,7 C 2,7 km/h (1 Bft)
01.03.2014 10:20 2,3 C 78 % 1002,9 hPa 0,0 l/m 2,3 km/h (1 Bft) S 180 -1,1 C 2,8 C 3,1 km/h (1 Bft)
01.03.2014 10:25 2,4 C 78 % 1002,9 hPa 0,0 l/m 2,7 km/h (1 Bft) S-SW 202 -1,0 C 3,0 C 7,6 km/h (2 Bft)
01.03.2014 10:30 2,7 C 77 % 1002,8 hPa 0,0 l/m 4,3 km/h (1 Bft) S-SW 202 -0,9 C 2,4 C 4,3 km/h (1 Bft)
01.03.2014 10:35 2,8 C 77 % 1002,8 hPa 0,0 l/m 5,1 km/h (1 Bft) S 180 -0,8 C 2,4 C 4,8 km/h (1 Bft)
01.03.2014 10:40 3,1 C 76 % 1002,8 hPa 0,0 l/m 5,5 km/h (1 Bft) S 180 -0,7 C 2,5 C 6,4 km/h (2 Bft)
01.03.2014 10:45 3,3 C 75 % 1002,8 hPa 0,0 l/m 5,6 km/h (1 Bft) S-SW 202 -0,7 C 2,7 C 9,3 km/h (2 Bft)
01.03.2014 10:50 3,9 C 74 % 1003,1 hPa 0,0 l/m 6,3 km/h (2 Bft) S 180 -0,3 C 3,2 C 11,4 km/h (2 Bft)
01.03.2014 10:55 3,8 C 73 % 1003,1 hPa 0,0 l/m 6,1 km/h (2 Bft) S 180 -0,6 C 3,6 C 7,2 km/h (2 Bft)
01.03.2014 10:58 3,8 C 73 % 1003,1 hPa 0,0 l/m 5,8 km/h (2 Bft) S-SW 202 -0,6 C 3,7 C 7,6 km/h (2 Bft)
01.03.2014 11:00 3,8 C 73 % 1003,1 hPa 0,0 l/m 5,8 km/h (2 Bft) S-SW 202 -0,6 C 3,7 C 7,6 km/h (2 Bft)
01.03.2014 11:05 3,7 C 72 % 1003,1 hPa 0,0 l/m 5,8 km/h (2 Bft) S-SW 202 -0,9 C 3,7 C 7,7 km/h (2 Bft)
01.03.2014 11:10 3,7 C 73 % 1003,2 hPa 0,0 l/m 6,3 km/h (2 Bft) S-SW 202 -0,7 C 3,3 C 11,4 km/h (2 Bft)
01.03.2014 11:15 3,6 C 72 % 1003,2 hPa 0,0 l/m 7,1 km/h (2 Bft) S 180 -1,0 C 2,2 C 9,8 km/h (2 Bft)
01.03.2014 11:20 4,1 C 71 % 1003,2 hPa 0,0 l/m 8,4 km/h (2 Bft) S-SW 202 -0,7 C 0,7 C 13,7 km/h (3 Bft)
01.03.2014 11:25 4,1 C 71 % 1003,2 hPa 0,0 l/m 7,9 km/h (2 Bft) S 180 -0,7 C 1,6 C 11,9 km/h (2 Bft)
01.03.2014 11:30 4,4 C 71 % 1003,1 hPa 0,0 l/m 7,4 km/h (2 Bft) S-SW 202 -0,4 C 2,5 C 8,4 km/h (2 Bft)
01.03.2014 11:35 4,6 C 69 % 1003,1 hPa 0,0 l/m 7,1 km/h (2 Bft) S-SW 202 -0,6 C 3,2 C 7,7 km/h (2 Bft)
01.03.2014 11:40 5,1 C 68 % 1003,1 hPa 0,0 l/m 7,9 km/h (2 Bft) S 180 -0,3 C 3,0 C 10,0 km/h (2 Bft)
01.03.2014 11:45 5,0 C 68 % 1003,1 hPa 0,0 l/m 8,4 km/h (2 Bft) O-SO 112 -0,4 C 2,5 C 5,8 km/h (2 Bft)
01.03.2014 11:50 4,8 C 69 % 1003,1 hPa 0,0 l/m 6,9 km/h (2 Bft) W-SW 247 -0,4 C 4,4 C 7,6 km/h (2 Bft)
01.03.2014 11:55 4,8 C 68 % 1003,1 hPa 0,0 l/m 6,6 km/h (2 Bft) S-SO 157 -0,6 C 4,7 C 10,5 km/h (2 Bft)
01.03.2014 12:00 4,7 C 68 % 1003,1 hPa 0,0 l/m 7,7 km/h (2 Bft) S 180 -0,7 C 3,0 C 14,2 km/h (3 Bft)
01.03.2014 12:05 5,0 C 67 % 1003,1 hPa 0,0 l/m 7,7 km/h (2 Bft) S-SO 157 -0,6 C 3,1 C 7,9 km/h (2 Bft)
01.03.2014 12:10 5,1 C 67 % 1003,1 hPa 0,0 l/m 7,9 km/h (2 Bft) S-SO 157 -0,5 C 3,0 C 8,9 km/h (2 Bft)
01.03.2014 12:15 5,1 C 66 % 1003,1 hPa 0,0 l/m 8,2 km/h (2 Bft) S-SO 157 -0,7 C 2,8 C 11,3 km/h (2 Bft)
01.03.2014 12:20 5,4 C 66 % 1003,1 hPa 0,0 l/m 7,4 km/h (2 Bft) S 180 -0,4 C 3,8 C 11,3 km/h (2 Bft)
01.03.2014 12:25 5,3 C 65 % 1003,1 hPa 0,0 l/m 7,2 km/h (2 Bft) S 180 -0,7 C 4,2 C 6,3 km/h (2 Bft)
01.03.2014 12:30 5,1 C 66 % 1003,1 hPa 0,0 l/m 7,1 km/h (2 Bft) S-SW 202 -0,7 C 4,4 C 8,5 km/h (2 Bft)
01.03.2014 12:35 4,9 C 67 % 1003,1 hPa 0,0 l/m 6,3 km/h (2 Bft) S-SW 202 -0,7 C 5,0 C 4,8 km/h (1 Bft)
01.03.2014 12:40 4,5 C 68 % 1003,1 hPa 0,0 l/m 6,1 km/h (2 Bft) S 180 -0,9 C 4,5 C 6,4 km/h (2 Bft)
01.03.2014 12:45 4,2 C 69 % 1003,1 hPa 0,0 l/m 6,0 km/h (2 Bft) S-SO 157 -1,0 C 4,2 C 6,3 km/h (2 Bft)
01.03.2014 12:50 4,2 C 70 % 1002,8 hPa 0,0 l/m 6,0 km/h (2 Bft) W-SW 247 -0,8 C 3,8 C 6,8 km/h (2 Bft)
01.03.2014 12:55 4,3 C 69 % 1002,8 hPa 0,0 l/m 6,0 km/h (2 Bft) S 180 -0,9 C 3,8 C 4,5 km/h (1 Bft)
01.03.2014 13:00 4,4 C 69 % 1002,8 hPa 0,0 l/m 5,5 km/h (1 Bft) SW 225 -0,8 C 4,3 C 7,6 km/h (2 Bft)
01.03.2014 13:05 4,5 C 69 % 1002,8 hPa 0,0 l/m 5,3 km/h (1 Bft) S 180 -0,7 C 4,4 C 6,3 km/h (2 Bft)
01.03.2014 13:10 5,0 C 69 % 1002,4 hPa 0,0 l/m 6,0 km/h (2 Bft) S 180 -0,2 C 4,6 C 7,6 km/h (2 Bft)
01.03.2014 13:15 4,7 C 68 % 1002,4 hPa 0,0 l/m 6,0 km/h (2 Bft) W-NW 292 -0,7 C 4,7 C 7,2 km/h (2 Bft)
01.03.2014 13:20 4,4 C 70 % 1002,4 hPa 0,0 l/m 5,6 km/h (1 Bft) S 180 -0,6 C 4,7 C 5,0 km/h (1 Bft)
01.03.2014 13:25 4,2 C 69 % 1002,4 hPa 0,0 l/m 5,8 km/h (2 Bft) W-SW 247 -1,0 C 4,3 C 5,0 km/h (1 Bft)
01.03.2014 13:30 4,5 C 70 % 1002,4 hPa 0,0 l/m 4,8 km/h (1 Bft) W-SW 247 -0,5 C 4,6 C 5,1 km/h (1 Bft)
01.03.2014 13:35 4,4 C 70 % 1002,4 hPa 0,0 l/m 4,3 km/h (1 Bft) W-SW 247 -0,6 C 4,8 C 7,1 km/h (2 Bft)
01.03.2014 13:40 4,1 C 70 % 1002,4 hPa 0,0 l/m 5,3 km/h (1 Bft) S 180 -0,9 C 3,9 C 6,0 km/h (2 Bft)
01.03.2014 13:45 3,7 C 71 % 1002,4 hPa 0,0 l/m 5,8 km/h (2 Bft) W-SW 247 -1,1 C 3,4 C 7,2 km/h (2 Bft)
01.03.2014 13:50 3,8 C 72 % 1002,3 hPa 0,0 l/m 5,8 km/h (2 Bft) W-SW 247 -0,8 C 3,2 C 6,4 km/h (2 Bft)
01.03.2014 13:55 3,9 C 73 % 1002,3 hPa 0,0 l/m 6,0 km/h (2 Bft) W 270 -0,5 C 3,0 C 9,3 km/h (2 Bft)
01.03.2014 14:00 3,6 C 73 % 1002,3 hPa 0,0 l/m 6,1 km/h (2 Bft) S 180 -0,8 C 2,8 C 3,5 km/h (1 Bft)
01.03.2014 14:05 3,7 C 73 % 1002,3 hPa 0,0 l/m 5,6 km/h (1 Bft) W-SW 247 -0,7 C 2,9 C 5,5 km/h (1 Bft)
01.03.2014 14:10 3,9 C 73 % 1002,3 hPa 0,0 l/m 5,1 km/h (1 Bft) SW 225 -0,5 C 3,2 C 5,3 km/h (1 Bft)
01.03.2014 14:15 4,0 C 72 % 1002,3 hPa 0,0 l/m 4,8 km/h (1 Bft) O 90 -0,6 C 3,6 C 6,1 km/h (2 Bft)
01.03.2014 14:20 3,9 C 73 % 1002,3 hPa 0,0 l/m 4,3 km/h (1 Bft) W-SW 247 -0,5 C 3,8 C 6,1 km/h (2 Bft)
01.03.2014 14:25 3,8 C 73 % 1002,3 hPa 0,0 l/m 4,5 km/h (1 Bft) W-SW 247 -0,6 C 3,7 C 5,1 km/h (1 Bft)
01.03.2014 14:30 3,5 C 73 % 1002,1 hPa 0,0 l/m 5,0 km/h (1 Bft) S-SO 157 -0,9 C 3,3 C 6,0 km/h (2 Bft)
01.03.2014 14:35 3,4 C 74 % 1002,1 hPa 0,0 l/m 5,6 km/h (1 Bft) S 180 -0,8 C 2,9 C 5,1 km/h (1 Bft)
01.03.2014 14:40 3,4 C 74 % 1002,1 hPa 0,0 l/m 4,8 km/h (1 Bft) S-SW 202 -0,8 C 3,0 C 5,1 km/h (1 Bft)
01.03.2014 14:45 3,4 C 74 % 1002,1 hPa 0,0 l/m 4,2 km/h (1 Bft) S-SW 202 -0,8 C 3,3 C 3,4 km/h (1 Bft)
01.03.2014 14:50 3,4 C 75 % 1002,2 hPa 0,0 l/m 4,5 km/h (1 Bft) S-SW 202 -0,6 C 3,2 C 6,1 km/h (2 Bft)
01.03.2014 14:55 3,3 C 75 % 1002,2 hPa 0,0 l/m 4,7 km/h (1 Bft) W-SW 247 -0,7 C 3,1 C 4,2 km/h (1 Bft)
01.03.2014 15:00 3,2 C 75 % 1002,2 hPa 0,0 l/m 5,1 km/h (1 Bft) S-SW 202 -0,8 C 2,8 C 6,8 km/h (2 Bft)
01.03.2014 15:05 3,2 C 75 % 1002,2 hPa 0,0 l/m 5,0 km/h (1 Bft) SO 135 -0,8 C 2,7 C 7,2 km/h (2 Bft)
01.03.2014 15:10 3,3 C 75 % 1002,0 hPa 0,0 l/m 5,5 km/h (1 Bft) S 180 -0,7 C 2,5 C 5,1 km/h (1 Bft)
01.03.2014 15:15 3,4 C 75 % 1002,0 hPa 0,0 l/m 4,5 km/h (1 Bft) W-SW 247 -0,6 C 2,9 C 3,5 km/h (1 Bft)
01.03.2014 15:20 3,5 C 75 % 1002,0 hPa 0,0 l/m 3,2 km/h (1 Bft) SW 225 -0,5 C 3,9 C 3,9 km/h (1 Bft)
01.03.2014 15:25 3,4 C 75 % 1002,0 hPa 0,0 l/m 3,4 km/h (1 Bft) SW 225 -0,6 C 3,8 C 5,1 km/h (1 Bft)
01.03.2014 15:30 3,3 C 75 % 1002,0 hPa 0,0 l/m 3,5 km/h (1 Bft) S-SW 202 -0,7 C 3,6 C 2,1 km/h (1 Bft)
01.03.2014 15:35 3,2 C 75 % 1002,0 hPa 0,0 l/m 3,7 km/h (1 Bft) S-SW 202 -0,8 C 3,4 C 3,1 km/h (1 Bft)
01.03.2014 15:40 3,2 C 75 % 1002,0 hPa 0,0 l/m 3,5 km/h (1 Bft) S-SW 202 -0,8 C 3,4 C 4,5 km/h (1 Bft)
01.03.2014 15:45 3,2 C 75 % 1002,0 hPa 0,0 l/m 3,7 km/h (1 Bft) S-SW 202 -0,8 C 3,3 C 5,0 km/h (1 Bft)
01.03.2014 15:50 3,1 C 75 % 1002,1 hPa 0,0 l/m 3,5 km/h (1 Bft) W-SW 247 -0,9 C 3,3 C 6,4 km/h (2 Bft)
01.03.2014 15:55 3,1 C 75 % 1002,1 hPa 0,0 l/m 3,4 km/h (1 Bft) S 180 -0,9 C 3,4 C 4,0 km/h (1 Bft)
01.03.2014 15:58 3,3 C 75 % 1002,1 hPa 0,0 l/m 3,5 km/h (1 Bft) S 180 -0,7 C 3,3 C 4,2 km/h (1 Bft)
01.03.2014 16:00 3,3 C 75 % 1002,1 hPa 0,0 l/m 3,5 km/h (1 Bft) S 180 -0,7 C 3,3 C 4,2 km/h (1 Bft)
01.03.2014 16:05 3,3 C 75 % 1002,1 hPa 0,0 l/m 3,5 km/h (1 Bft) S-SO 157 -0,7 C 3,4 C 5,5 km/h (1 Bft)
01.03.2014 16:10 3,2 C 74 % 1001,9 hPa 0,0 l/m 4,0 km/h (1 Bft) S 180 -1,0 C 3,1 C 4,8 km/h (1 Bft)
01.03.2014 16:15 3,2 C 74 % 1001,9 hPa 0,0 l/m 4,5 km/h (1 Bft) S 180 -1,0 C 2,9 C 3,9 km/h (1 Bft)
01.03.2014 16:20 3,1 C 75 % 1001,9 hPa 0,0 l/m 4,0 km/h (1 Bft) S 180 -0,9 C 3,1 C 6,8 km/h (2 Bft)
01.03.2014 16:25 3,0 C 75 % 1001,9 hPa 0,0 l/m 4,3 km/h (1 Bft) S 180 -1,0 C 2,8 C 0,0 km/h (0 Bft)
01.03.2014 16:30 3,0 C 75 % 1001,8 hPa 0,0 l/m 4,2 km/h (1 Bft) S-SO 157 -1,0 C 2,7 C 5,0 km/h (1 Bft)
01.03.2014 16:35 2,9 C 76 % 1001,8 hPa 0,0 l/m 3,2 km/h (1 Bft) S-SO 157 -0,9 C 3,1 C 3,5 km/h (1 Bft)
01.03.2014 16:40 2,9 C 76 % 1001,8 hPa 0,0 l/m 4,3 km/h (1 Bft) S-SW 202 -0,9 C 2,6 C 4,7 km/h (1 Bft)
01.03.2014 16:45 2,9 C 76 % 1001,8 hPa 0,0 l/m 4,3 km/h (1 Bft) S 180 -0,9 C 2,6 C 3,5 km/h (1 Bft)
01.03.2014 16:50 2,8 C 76 % 1001,8 hPa 0,0 l/m 3,9 km/h (1 Bft) S-SW 202 -1,0 C 2,8 C 6,3 km/h (2 Bft)
01.03.2014 16:55 2,8 C 76 % 1001,8 hPa 0,0 l/m 4,3 km/h (1 Bft) S 180 -1,0 C 2,6 C 7,2 km/h (2 Bft)
01.03.2014 17:00 2,8 C 76 % 1001,8 hPa 0,0 l/m 4,8 km/h (1 Bft) S-SW 202 -1,0 C 2,2 C 3,2 km/h (1 Bft)
01.03.2014 17:05 2,7 C 76 % 1001,8 hPa 0,0 l/m 4,7 km/h (1 Bft) S 180 -1,1 C 2,2 C 2,9 km/h (1 Bft)
01.03.2014 17:10 2,6 C 77 % 1001,8 hPa 0,0 l/m 4,7 km/h (1 Bft) O 90 -1,0 C 2,1 C 6,4 km/h (2 Bft)
01.03.2014 17:15 2,6 C 77 % 1001,8 hPa 0,0 l/m 4,7 km/h (1 Bft) S-SW 202 -1,0 C 1,9 C 3,7 km/h (1 Bft)
01.03.2014 17:20 2,5 C 77 % 1001,8 hPa 0,0 l/m 4,2 km/h (1 Bft) S 180 -1,1 C 2,1 C 4,7 km/h (1 Bft)
01.03.2014 17:25 2,4 C 77 % 1001,8 hPa 0,0 l/m 3,2 km/h (1 Bft) W-SW 247 -1,2 C 2,6 C 6,3 km/h (2 Bft)
01.03.2014 17:30 2,4 C 77 % 1001,9 hPa 0,0 l/m 2,7 km/h (1 Bft) S 180 -1,2 C 2,8 C 3,7 km/h (1 Bft)
01.03.2014 17:35 2,4 C 78 % 1001,9 hPa 0,0 l/m 2,6 km/h (1 Bft) W-SW 247 -1,0 C 2,8 C 0,0 km/h (0 Bft)
01.03.2014 17:40 2,3 C 78 % 1001,9 hPa 0,0 l/m 1,9 km/h (1 Bft) S 180 -1,1 C 2,7 C 2,1 km/h (1 Bft)
01.03.2014 17:45 2,3 C 78 % 1001,9 hPa 0,0 l/m 1,3 km/h (1 Bft) S 180 -1,1 C 2,7 C 1,8 km/h (1 Bft)
01.03.2014 17:50 2,3 C 78 % 1001,9 hPa 0,0 l/m 3,1 km/h (1 Bft) W-SW 247 -1,1 C 2,5 C 6,1 km/h (2 Bft)
01.03.2014 17:55 2,3 C 78 % 1001,9 hPa 0,0 l/m 3,2 km/h (1 Bft) S-SW 202 -1,1 C 2,3 C 0,0 km/h (0 Bft)
01.03.2014 18:00 2,3 C 79 % 1001,9 hPa 0,0 l/m 3,1 km/h (1 Bft) W 270 -1,0 C 2,3 C 5,3 km/h (1 Bft)
01.03.2014 18:05 2,2 C 79 % 1001,9 hPa 0,0 l/m 2,9 km/h (1 Bft) S-SW 202 -1,1 C 2,4 C 2,4 km/h (1 Bft)
01.03.2014 18:10 2,2 C 79 % 1002,1 hPa 0,0 l/m 2,9 km/h (1 Bft) S-SW 202 -1,1 C 2,4 C 2,3 km/h (1 Bft)
01.03.2014 18:15 2,2 C 79 % 1002,1 hPa 0,0 l/m 3,1 km/h (1 Bft) S-SW 202 -1,1 C 2,3 C 4,8 km/h (1 Bft)
01.03.2014 18:20 2,2 C 79 % 1002,1 hPa 0,0 l/m 3,9 km/h (1 Bft) S 180 -1,1 C 1,9 C 3,9 km/h (1 Bft)
01.03.2014 18:25 2,1 C 79 % 1002,1 hPa 0,0 l/m 3,9 km/h (1 Bft) S-SW 202 -1,2 C 1,8 C 4,0 km/h (1 Bft)
01.03.2014 18:30 2,0 C 79 % 1001,9 hPa 0,0 l/m 3,2 km/h (1 Bft) W-SW 247 -1,2 C 2,1 C 3,9 km/h (1 Bft)
01.03.2014 18:35 2,0 C 79 % 1001,9 hPa 0,0 l/m 3,5 km/h (1 Bft) W-SW 247 -1,2 C 1,8 C 4,0 km/h (1 Bft)
01.03.2014 18:40 1,9 C 80 % 1001,9 hPa 0,0 l/m 1,9 km/h (1 Bft) W-SW 247 -1,2 C 2,3 C 0,0 km/h (0 Bft)
01.03.2014 18:45 1,8 C 80 % 1001,9 hPa 0,0 l/m 0,5 km/h (0 Bft) SW 225 -1,3 C 2,3 C 0,0 km/h (0 Bft)
01.03.2014 18:50 1,8 C 80 % 1001,9 hPa 0,0 l/m 0,6 km/h (0 Bft) S-SO 157 -1,3 C 2,2 C 1,9 km/h (1 Bft)
01.03.2014 18:55 1,8 C 80 % 1001,9 hPa 0,0 l/m 0,6 km/h (0 Bft) S-SO 157 -1,3 C 2,1 C 0,0 km/h (0 Bft)
01.03.2014 19:00 1,7 C 80 % 1001,9 hPa 0,0 l/m 0,5 km/h (0 Bft) S 180 -1,4 C 2,1 C 3,4 km/h (1 Bft)
01.03.2014 19:05 1,6 C 80 % 1001,9 hPa 0,0 l/m 0,8 km/h (0 Bft) S-SW 202 -1,5 C 2,0 C 0,0 km/h (0 Bft)
01.03.2014 19:10 1,6 C 80 % 1002,1 hPa 0,0 l/m 1,0 km/h (0 Bft) S-SW 202 -1,5 C 2,0 C 0,0 km/h (0 Bft)
01.03.2014 19:15 1,6 C 81 % 1002,1 hPa 0,0 l/m 0,6 km/h (0 Bft) S-SO 157 -1,3 C 1,9 C 0,0 km/h (0 Bft)
01.03.2014 19:20 1,5 C 81 % 1002,1 hPa 0,0 l/m 0,5 km/h (0 Bft) S-SO 157 -1,4 C 1,9 C 0,0 km/h (0 Bft)
01.03.2014 19:25 1,5 C 81 % 1002,1 hPa 0,0 l/m 0,2 km/h (0 Bft) S-SO 157 -1,4 C 1,8 C 0,0 km/h (0 Bft)
01.03.2014 19:30 1,4 C 81 % 1002,3 hPa 0,0 l/m 0,3 km/h (0 Bft) S-SO 157 -1,5 C 1,7 C 1,9 km/h (1 Bft)
01.03.2014 19:35 1,4 C 81 % 1002,3 hPa 0,0 l/m 0,3 km/h (0 Bft) S-SO 157 -1,5 C 1,7 C 0,0 km/h (0 Bft)
01.03.2014 19:40 1,3 C 81 % 1002,3 hPa 0,0 l/m 0,8 km/h (0 Bft) S-SO 157 -1,6 C 1,6 C 2,3 km/h (1 Bft)
01.03.2014 19:45 1,3 C 82 % 1002,3 hPa 0,0 l/m 0,6 km/h (0 Bft) SO 135 -1,4 C 1,6 C 0,0 km/h (0 Bft)
01.03.2014 19:50 1,3 C 82 % 1002,1 hPa 0,0 l/m 0,3 km/h (0 Bft) SO 135 -1,4 C 1,5 C 0,0 km/h (0 Bft)
01.03.2014 19:55 1,3 C 82 % 1002,1 hPa 0,0 l/m 0,2 km/h (0 Bft) SO 135 -1,4 C 1,5 C 0,0 km/h (0 Bft)
01.03.2014 20:00 1,3 C 82 % 1002,1 hPa 0,0 l/m 0,6 km/h (0 Bft) O-SO 112 -1,4 C 1,4 C 0,0 km/h (0 Bft)
01.03.2014 20:05 1,3 C 83 % 1002,1 hPa 0,0 l/m 0,8 km/h (0 Bft) O 90 -1,3 C 1,4 C 1,8 km/h (1 Bft)
01.03.2014 20:10 1,3 C 83 % 1002,2 hPa 0,0 l/m 1,3 km/h (1 Bft) O-NO 67 -1,3 C 1,4 C 1,9 km/h (1 Bft)
01.03.2014 20:15 1,2 C 83 % 1002,2 hPa 0,0 l/m 1,0 km/h (0 Bft) O-NO 67 -1,4 C 1,3 C 1,6 km/h (1 Bft)
01.03.2014 20:20 1,1 C 83 % 1002,2 hPa 0,0 l/m 0,3 km/h (0 Bft) O-SO 112 -1,5 C 1,3 C 0,0 km/h (0 Bft)
01.03.2014 20:25 1,1 C 83 % 1002,2 hPa 0,0 l/m 0,3 km/h (0 Bft) O-SO 112 -1,5 C 1,3 C 0,0 km/h (0 Bft)
01.03.2014 20:30 1,2 C 84 % 1002,2 hPa 0,0 l/m 1,0 km/h (0 Bft) O-SO 112 -1,2 C 1,3 C 2,6 km/h (1 Bft)
01.03.2014 20:35 1,2 C 84 % 1002,2 hPa 0,0 l/m 1,8 km/h (1 Bft) O-NO 67 -1,2 C 1,3 C 2,7 km/h (1 Bft)
01.03.2014 20:40 1,2 C 85 % 1002,2 hPa 0,0 l/m 1,9 km/h (1 Bft) O 90 -1,0 C 1,3 C 2,7 km/h (1 Bft)
01.03.2014 20:45 1,2 C 85 % 1002,2 hPa 0,0 l/m 1,8 km/h (1 Bft) O 90 -1,0 C 1,3 C 0,0 km/h (0 Bft)
01.03.2014 20:50 1,2 C 85 % 1002,4 hPa 0,0 l/m 1,9 km/h (1 Bft) O-SO 112 -1,0 C 1,3 C 1,8 km/h (1 Bft)
01.03.2014 20:55 1,1 C 85 % 1002,4 hPa 0,0 l/m 1,1 km/h (1 Bft) O 90 -1,1 C 1,3 C 0,0 km/h (0 Bft)
01.03.2014 20:58 1,1 C 85 % 1002,4 hPa 0,0 l/m 0,2 km/h (0 Bft) O-SO 112 -1,1 C 1,2 C 0,0 km/h (0 Bft)
01.03.2014 21:00 1,1 C 85 % 1002,4 hPa 0,0 l/m 0,2 km/h (0 Bft) O-SO 112 -1,1 C 1,2 C 0,0 km/h (0 Bft)
01.03.2014 21:05 1,1 C 86 % 1002,4 hPa 0,0 l/m 0,5 km/h (0 Bft) SO 135 -1,0 C 1,2 C 0,0 km/h (0 Bft)
01.03.2014 21:10 1,1 C 86 % 1002,0 hPa 0,0 l/m 0,5 km/h (0 Bft) O-NO 67 -1,0 C 1,2 C 0,0 km/h (0 Bft)
01.03.2014 21:15 1,1 C 86 % 1002,0 hPa 0,0 l/m 0,5 km/h (0 Bft) O 90 -1,0 C 1,2 C 2,4 km/h (1 Bft)
01.03.2014 21:20 1,0 C 86 % 1002,0 hPa 0,0 l/m 1,6 km/h (1 Bft) SO 135 -1,1 C 1,2 C 0,0 km/h (0 Bft)
01.03.2014 21:25 1,0 C 86 % 1002,0 hPa 0,0 l/m 1,6 km/h (1 Bft) NO 45 -1,1 C 1,2 C 2,1 km/h (1 Bft)
01.03.2014 21:30 1,0 C 86 % 1002,1 hPa 0,0 l/m 0,3 km/h (0 Bft) O-SO 112 -1,1 C 1,1 C 0,0 km/h (0 Bft)
01.03.2014 21:35 1,0 C 87 % 1002,1 hPa 0,0 l/m 0,5 km/h (0 Bft) S 180 -0,9 C 1,2 C 1,6 km/h (1 Bft)
01.03.2014 21:40 1,1 C 87 % 1002,1 hPa 0,0 l/m 1,0 km/h (0 Bft) O-SO 112 -0,8 C 1,2 C 1,6 km/h (1 Bft)
01.03.2014 21:45 1,1 C 87 % 1002,1 hPa 0,0 l/m 1,0 km/h (0 Bft) O-SO 112 -0,8 C 1,2 C 0,0 km/h (0 Bft)
01.03.2014 21:50 1,1 C 87 % 1002,1 hPa 0,0 l/m 1,1 km/h (1 Bft) O-SO 112 -0,8 C 1,2 C 5,1 km/h (1 Bft)
01.03.2014 21:55 1,1 C 87 % 1002,1 hPa 0,0 l/m 2,1 km/h (1 Bft) O-SO 112 -0,8 C 1,2 C 3,4 km/h (1 Bft)
01.03.2014 22:00 1,1 C 87 % 1002,1 hPa 0,0 l/m 4,0 km/h (1 Bft) O-SO 112 -0,8 C 0,3 C 6,0 km/h (2 Bft)
01.03.2014 22:05 1,1 C 87 % 1002,1 hPa 0,0 l/m 4,8 km/h (1 Bft) O-NO 67 -0,8 C -0,1 C 7,1 km/h (2 Bft)
01.03.2014 22:10 1,2 C 87 % 1002,1 hPa 0,0 l/m 5,5 km/h (1 Bft) O-SO 112 -0,7 C -0,3 C 4,2 km/h (1 Bft)
01.03.2014 22:15 1,1 C 87 % 1002,1 hPa 0,0 l/m 5,0 km/h (1 Bft) O 90 -0,8 C -0,2 C 2,9 km/h (1 Bft)
01.03.2014 22:20 1,0 C 87 % 1002,1 hPa 0,0 l/m 3,4 km/h (1 Bft) O 90 -0,9 C 0,7 C 2,1 km/h (1 Bft)
01.03.2014 22:25 1,0 C 87 % 1002,1 hPa 0,0 l/m 2,6 km/h (1 Bft) O 90 -0,9 C 1,2 C 3,5 km/h (1 Bft)
01.03.2014 22:30 1,0 C 86 % 1002,1 hPa 0,0 l/m 3,2 km/h (1 Bft) O 90 -1,1 C 0,7 C 4,0 km/h (1 Bft)
01.03.2014 22:35 1,0 C 86 % 1002,1 hPa 0,0 l/m 3,2 km/h (1 Bft) SW 225 -1,1 C 0,7 C 4,2 km/h (1 Bft)
01.03.2014 22:40 0,8 C 87 % 1002,1 hPa 0,0 l/m 1,6 km/h (1 Bft) S 180 -1,1 C 1,2 C 0,0 km/h (0 Bft)
01.03.2014 22:45 0,9 C 87 % 1002,1 hPa 0,0 l/m 1,1 km/h (1 Bft) S 180 -1,0 C 1,1 C 0,0 km/h (0 Bft)
01.03.2014 22:50 0,8 C 87 % 1002,2 hPa 0,0 l/m 0,2 km/h (0 Bft) S 180 -1,1 C 1,1 C 0,0 km/h (0 Bft)
01.03.2014 22:55 0,8 C 87 % 1002,2 hPa 0,0 l/m 0,6 km/h (0 Bft) S-SO 157 -1,1 C 1,0 C 3,9 km/h (1 Bft)
01.03.2014 23:00 0,7 C 87 % 1002,2 hPa 0,0 l/m 1,0 km/h (0 Bft) S 180 -1,2 C 1,0 C 0,0 km/h (0 Bft)
01.03.2014 23:05 0,8 C 87 % 1002,2 hPa 0,0 l/m 0,8 km/h (0 Bft) SO 135 -1,1 C 1,0 C 0,0 km/h (0 Bft)
01.03.2014 23:10 0,7 C 87 % 1002,1 hPa 0,0 l/m 0,0 km/h (0 Bft) SO 135 -1,2 C 0,9 C 0,0 km/h (0 Bft)
01.03.2014 23:15 0,7 C 87 % 1002,1 hPa 0,0 l/m 0,0 km/h (0 Bft) SO 135 -1,2 C 0,9 C 0,0 km/h (0 Bft)
01.03.2014 23:20 0,7 C 88 % 1002,1 hPa 0,0 l/m 0,2 km/h (0 Bft) S 180 -1,1 C 0,8 C 0,0 km/h (0 Bft)
01.03.2014 23:25 0,6 C 87 % 1002,1 hPa 0,0 l/m 0,2 km/h (0 Bft) SO 135 -1,3 C 0,8 C 0,0 km/h (0 Bft)
01.03.2014 23:30 0,7 C 87 % 1002,4 hPa 0,0 l/m 0,0 km/h (0 Bft) SO 135 -1,2 C 0,8 C 0,0 km/h (0 Bft)
01.03.2014 23:35 0,7 C 87 % 1002,4 hPa 0,0 l/m 0,0 km/h (0 Bft) S-SO 157 -1,2 C 0,8 C 0,0 km/h (0 Bft)
01.03.2014 23:40 0,6 C 87 % 1002,4 hPa 0,0 l/m 0,2 km/h (0 Bft) S-SO 157 -1,3 C 0,8 C 0,0 km/h (0 Bft)
01.03.2014 23:45 0,7 C 87 % 1002,4 hPa 0,0 l/m 0,2 km/h (0 Bft) S-SO 157 -1,2 C 0,8 C 0,0 km/h (0 Bft)
01.03.2014 23:50 0,7 C 87 % 1002,1 hPa 0,0 l/m 0,2 km/h (0 Bft) SO 135 -1,2 C 0,8 C 1,9 km/h (1 Bft)
01.03.2014 23:55 0,7 C 87 % 1002,1 hPa 0,0 l/m 1,0 km/h (0 Bft) S 180 -1,2 C 0,8 C 0,0 km/h (0 Bft)
_ Min-Zeit 00:05 01:25 17:25 - 23:35 - - 00:00 00:55 23:55
Minimum _ -2,2 C 59 % 1001,8 hPa - 0,0 km/h (0 Bft) - - -7,5 C -3,5 C 0,0 km/h (0 Bft)
_ Max-Zeit 12:20 23:20 11:25 23:55 11:45 - - 13:10 12:35 12:00
Maximum _ 5,4 C 88 % 1003,2 hPa 0,0 l/m 8,4 km/h
O-SO (2 Bft)
- - -0,2 C 5,0 C 14,2 km/h
S (3 Bft)
Durchschnitt _ 1,6 C 78 % 1002,3 hPa #0,0 l/m 3,5 km/h (1 Bft) S - -1,9 C 1,1 C 4,2 km/h (1 Bft)